Starlink 11236

operational
NORAD ID: 61062 Int'l Des: 2024-164 Owner: SPXS Country: US Constellation: starlink
LEOCIRCULAR

About Starlink 11236

Description loading...

Live Position

Loading 3D Globe...

Upcoming Passes

Altitude History

Altitude vs Time

uPlot chart will show altitude changes over time

Two-Line Element Set

1 61062U 24164N 25353.24834251 .00000525 00000-0 92021-5 0 9990
2 61062 53.1600 347.8848 0001526 102.2508 257.8681 15.69696132 72785
Epoch: Dec 19, 2025 • Age: 12 hours

Current Status

Altitude 362.4 km
Velocity 7.69 km/s
Sub-Earth Point -9.59°S, 177.87°W
Launch Date Sep 13, 2024
Age 1.2 years
Type internet

Technical Details

Classification Payload
Mass 960.00 kg
Dry Mass 910.00 kg
Total Mass 960.00 kg
Length 0.30 m
Diameter 4.10 m
Span 29.00 m
Shape Box + pan
Manufacturer SPXS
Bus Type Starlink V2MD
Phase Status In Orbit
Owner/State SPXS/US

Large Constellations

Loading constellations...